GW1546 Weather Reports


time (UTC)temp
C
wind
direction
speed
KPH
gust
KPH
rain 1hr
cm
rain 24hr
cm
rain mn
cm
humidity
%
barometer
mb
20260508130308 8 62 1.6 4.8 0.00 0.00 0.00 84 990.1
20260508125126 7 73 1.6 3.2 0.00 0.00 0.00 87 990.5
20260508123936 6 359 3.2 3.2 0.00 0.00 0.00 91 990.1
20260508123350 5 82 4.8 6.4 0.00 0.00 0.00 95 990.5
20260508122731 5 88 1.6 3.2 0.00 0.00 0.00 97 990.5
20260508122120 4 69 1.6 4.8 0.00 0.00 0.00 97 990.1
20260508121537 4 65 3.2 6.4 0.00 0.00 0.00 98 990.1
20260508120920 4 26 0.0 3.2 0.00 0.00 0.00 98 990.5
20260508115710 3 87 0.0 1.6 0.00 0.00 0.00 99 990.5
20260508115148 3 108 1.6 3.2 0.00 0.00 0.00 99 990.1
20260508114519 3 84 1.6 4.8 0.00 0.00 0.00 99 990.1
20260508113930 3 116 1.6 3.2 0.00 0.00 0.00 99 990.1
20260508113316 3 96 1.6 1.6 0.00 0.00 0.00 99 990.1
20260508112719 3 116 0.0 3.2 0.00 0.00 0.00 99 990.1
20260508112143 3 101 0.0 1.6 0.00 0.00 0.00 99 989.8
20260508111542 3 116 1.6 1.6 0.00 0.00 0.00 99 989.8
20260508110922 3 118 0.0 1.6 0.00 0.00 0.00 99 990.1
20260508110326 3 143 1.6 3.2 0.00 0.00 0.00 99 989.8
20260508105142 3 101 1.6 4.8 0.00 0.00 0.00 99 989.5
20260508103936 3 103 1.6 3.2 0.00 0.00 0.00 99 989.5
20260508103338 3 241 0.0 1.6 0.00 0.00 0.00 99 989.5
20260508102715 3 168 1.6 3.2 0.00 0.00 0.00 99 989.8
20260508102115 3 135 0.0 3.2 0.00 0.00 0.00 99 989.8
20260508101512 3 162 0.0 1.6 0.00 0.00 0.00 99 989.5
20260508100938 3 90 1.6 1.6 0.00 0.00 0.00 99 989.8
20260508100331 3 164 0.0 1.6 0.00 0.00 0.00 99 989.5
20260508095748 3 113 1.6 3.2 0.00 0.00 0.00 99 989.5
20260508095130 3 186 3.2 4.8 0.00 0.00 0.00 99 989.5
20260508094522 3 93 0.0 1.6 0.00 0.00 0.00 99 989.5
20260508093943 3 234 0.0 1.6 0.00 0.00 0.00 99 989.5
20260508092722 3 192 1.6 1.6 0.00 0.00 0.00 99 989.1
20260508092142 2 100 0.0 1.6 0.00 0.00 0.00 99 989.5
20260508091528 3 207 0.0 4.8 0.00 0.00 0.00 99 989.5
20260508090932 3 197 1.6 3.2 0.00 0.00 0.00 99 989.1
20260508085139 3 217 1.6 3.2 0.00 0.00 0.00 99 989.1
20260508084547 3 148 0.0 1.6 0.00 0.00 0.00 99 989.1
20260508083912 3 168 0.0 1.6 0.00 0.00 0.00 99 989.1
20260508083313 3 193 1.6 3.2 0.00 0.00 0.00 99 989.1
20260508082735 3 213 0.0 3.2 0.00 0.00 0.00 99 988.8
20260508082150 3 162 3.2 3.2 0.00 0.00 0.00 99 988.8
20260508081537 3 200 1.6 3.2 0.00 0.00 0.00 99 989.1
20260508080328 3 184 1.6 3.2 0.00 0.00 0.00 99 989.1
20260508075731 3 196 0.0 3.2 0.00 0.00 0.00 99 988.8
20260508075120 4 193 1.6 1.6 0.00 0.00 0.00 99 988.8
20260508074529 4 207 1.6 3.2 0.00 0.00 0.00 99 988.8
20260508073327 3 191 1.6 3.2 0.00 0.00 0.00 99 988.8
20260508072733 3 220 1.6 4.8 0.00 0.00 0.00 99 988.4
20260508072115 3 209 3.2 3.2 0.00 0.00 0.00 99 988.4
20260508071537 3 169 4.8 4.8 0.00 0.00 0.00 99 988.4
20260508070950 3 185 3.2 4.8 0.00 0.00 0.00 99 988.4
20260508070338 3 168 1.6 3.2 0.00 0.00 0.00 99 988.8
20260508065738 3 253 0.0 3.2 0.00 0.00 0.00 99 988.4
20260508065133 3 229 1.6 3.2 0.00 0.00 0.00 99 988.4
20260508064520 3 216 1.6 3.2 0.00 0.00 0.00 99 988.8
20260508063925 3 181 3.2 4.8 0.00 0.00 0.00 99 988.8
20260508063318 3 208 3.2 4.8 0.00 0.00 0.00 99 988.8
20260508062742 3 200 1.6 3.2 0.00 0.00 0.00 99 988.8
20260508062146 3 188 1.6 3.2 0.00 0.00 0.00 99 988.8
20260508061530 3 220 0.0 3.2 0.00 0.00 0.00 99 988.8
20260508060909 3 189 1.6 1.6 0.00 0.00 0.00 99 988.8
20260508060341 4 170 3.2 3.2 0.00 0.00 0.00 99 988.4
20260508055751 4 200 1.6 1.6 0.00 0.00 0.00 99 989.1
20260508055141 4 206 1.6 1.6 0.00 0.00 0.00 99 989.1
20260508054544 4 218 0.0 1.6 0.00 0.00 0.00 99 988.8
20260508052737 4 218 0.0 1.6 0.00 0.00 0.00 99 988.8
20260508052132 4 208 0.0 1.6 0.00 0.00 0.00 99 988.8
20260508051526 4 226 0.0 1.6 0.00 0.00 0.00 99 988.4
20260508050945 4 248 0.0 1.6 0.00 0.00 0.00 99 988.8
20260508050309 5 219 0.0 1.6 0.00 0.00 0.00 99 988.4
20260508045724 5 201 0.0 1.6 0.00 0.00 0.00 99 988.4
20260508045128 5 208 0.0 1.6 0.00 0.00 0.00 99 988.8
20260508044542 5 209 0.0 0.0 0.00 0.00 0.00 99 988.4
20260508043936 5 207 0.0 0.0 0.00 0.00 0.00 99 988.4
20260508043347 5 207 0.0 0.0 0.00 0.00 0.00 99 988.4
20260508042723 5 207 0.0 0.0 0.00 0.00 0.00 99 988.4
20260508042141 5 207 1.6 1.6 0.00 0.00 0.00 99 988.4
20260508041532 5 207 0.0 1.6 0.00 0.00 0.00 99 988.8
20260508040318 5 208 0.0 1.6 0.00 0.00 0.00 99 988.4
20260508035120 5 208 0.0 0.0 0.00 0.00 0.03 99 988.4
20260508034526 5 209 0.0 0.0 0.00 0.00 0.03 99 988.1
20260508033916 5 209 0.0 0.0 0.00 0.00 0.03 99 988.4
20260508033321 6 209 0.0 0.0 0.00 0.00 0.03 99 988.1
20260508032734 6 209 0.0 0.0 0.00 0.00 0.03 99 988.1
20260508032147 6 210 0.0 0.0 0.00 0.00 0.03 99 988.1
20260508031526 6 210 0.0 0.0 0.00 0.00 0.03 99 988.1
20260508030931 6 210 0.0 0.0 0.00 0.00 0.03 99 988.1
20260508030311 6 210 0.0 0.0 0.00 0.00 0.03 99 987.8
20260508025719 6 210 0.0 0.0 0.00 0.00 0.03 98 987.8
20260508025114 6 211 0.0 1.6 0.00 0.00 0.03 98 987.8
20260508024525 6 226 0.0 0.0 0.00 0.00 0.03 98 987.1
20260508023946 6 232 0.0 0.0 0.00 0.00 0.03 98 987.4
20260508023341 7 232 0.0 0.0 0.00 0.00 0.03 98 987.4
20260508022723 7 232 0.0 0.0 0.00 0.00 0.03 98 987.4
20260508021515 7 232 0.0 0.0 0.00 0.00 0.03 97 987.1
20260508020945 7 232 0.0 0.0 0.00 0.00 0.03 97 987.1
20260508020349 7 193 0.0 0.0 0.00 0.00 0.03 97 987.1
20260508015738 7 193 0.0 0.0 0.00 0.00 0.03 96 986.7
20260508015145 7 193 0.0 0.0 0.00 0.00 0.03 96 986.7
20260508014517 8 193 0.0 0.0 0.00 0.00 0.03 96 986.4
20260508012725 8 192 0.0 1.6 0.00 0.00 0.03 94 986.4
20260508011528 8 193 0.0 1.6 0.00 0.00 0.03 93 986.1
20260508010935 9 193 0.0 0.0 0.00 0.00 0.03 93 986.1
20260508010349 9 186 0.0 1.6 0.00 0.00 0.03 92 985.7
20260508005736 10 193 0.0 1.6 0.00 0.00 0.03 91 985.7
20260508003908 10 193 0.0 1.6 0.00 0.00 0.03 88 985.7
20260508003340 11 241 0.0 1.6 0.00 0.00 0.03 87 985.7
20260508002734 11 54 0.0 3.2 0.00 0.00 0.03 86 985.4
20260508002110 11 101 0.0 1.6 0.00 0.00 0.03 85 985.4
20260508001532 11 79 0.0 1.6 0.00 0.00 0.03 84 985.4
20260508000949 11 88 1.6 1.6 0.00 0.00 0.03 84 985.4
20260508000335 12 41 0.0 1.6 0.00 0.00 0.03 83 985.1
20260507235747 12 203 1.6 1.6 0.00 0.00 0.03 81 985.1
20260507235119 12 280 0.0 3.2 0.00 0.00 0.03 77 985.1
20260507234551 13 233 1.6 4.8 0.00 0.00 0.03 75 984.7
20260507233938 13 249 1.6 3.2 0.00 0.00 0.03 75 984.7
20260507233347 13 211 0.0 1.6 0.00 0.00 0.03 73 984.7
20260507231535 13 226 3.2 4.8 0.00 0.00 0.03 72 984.4
20260507225744 14 226 1.6 3.2 0.00 0.00 0.03 70 984.4
20260507225120 14 292 1.6 1.6 0.00 0.00 0.03 70 984.7
20260507224527 14 252 1.6 4.8 0.00 0.00 0.03 67 984.4
20260507223918 14 241 0.0 3.2 0.00 0.00 0.03 68 984.4
20260507223338 14 265 0.0 1.6 0.00 0.00 0.03 68 984.7
20260507222719 14 241 1.6 3.2 0.00 0.00 0.03 69 984.4
20260507221516 15 220 1.6 6.4 0.00 0.00 0.03 59 984.4
20260507220312 16 243 4.8 9.7 0.00 0.00 0.03 57 984.0
20260507215738 16 282 1.6 4.8 0.00 0.00 0.03 55 984.4
20260507215144 16 230 1.6 6.4 0.00 0.00 0.03 51 984.0
20260507213944 17 252 4.8 16.1 0.00 0.00 0.03 49 983.7
20260507212737 16 229 3.2 3.2 0.00 0.00 0.03 63 984.0
20260507211532 16 239 0.0 1.6 0.00 0.00 0.03 61 984.0
20260507210928 16 212 1.6 4.8 0.00 0.00 0.03 53 983.7
20260507210344 16 215 3.2 4.8 0.00 0.00 0.03 54 983.7
20260507204547 18 219 8.0 9.7 0.00 0.00 0.03 49 983.7
20260507202737 16 268 1.6 4.8 0.00 0.00 0.03 55 984.0
20260507202152 16 342 6.4 12.9 0.00 0.00 0.03 55 983.7
20260507201538 16 261 4.8 9.7 0.00 0.00 0.03 54 983.7
20260507200938 16 206 1.6 9.7 0.00 0.00 0.03 55 983.7
20260507195752 16 247 6.4 12.9 0.00 0.00 0.03 56 983.7
20260507195151 16 242 1.6 6.4 0.00 0.00 0.03 54 984.0
20260507194514 16 307 3.2 4.8 0.00 0.00 0.03 58 984.0
20260507193951 16 269 3.2 6.4 0.00 0.00 0.03 55 984.0
20260507192732 17 214 1.6 6.4 0.00 0.00 0.03 54 984.0
20260507192146 17 266 9.7 11.3 0.00 0.00 0.03 53 984.0
20260507191535 17 269 8.0 11.3 0.00 0.00 0.03 52 984.0
20260507190936 17 204 4.8 11.3 0.00 0.00 0.03 54 984.4
20260507185724 16 251 3.2 4.8 0.00 0.00 0.03 55 984.4
20260507185150 16 243 1.6 3.2 0.00 0.00 0.03 57 984.7
20260507184549 16 312 0.0 3.2 0.00 0.00 0.03 58 984.7
20260507183952 16 179 3.2 6.4 0.00 0.00 0.03 54 984.7
20260507183308 16 270 6.4 11.3 0.00 0.00 0.03 56 984.7
20260507182714 15 104 1.6 1.6 0.00 0.00 0.03 58 984.7
20260507182150 15 273 6.4 9.7 0.00 0.00 0.03 60 984.7
20260507181510 15 280 3.2 6.4 0.00 0.00 0.03 59 984.7
20260507180928 15 203 1.6 4.8 0.00 0.00 0.03 57 985.1
20260507180324 16 274 1.6 4.8 0.00 0.00 0.03 58 985.1
20260507174520 15 170 3.2 6.4 0.00 0.00 0.03 60 985.1
20260507173945 15 278 3.2 9.7 0.00 0.00 0.03 61 985.4
20260507172732 16 322 6.4 9.7 0.00 0.00 0.03 58 985.1
20260507172129 16 103 1.6 3.2 0.00 0.00 0.03 62 985.1
20260507170911 14 282 3.2 4.8 0.00 0.00 0.03 62 985.7
20260507170321 14 228 1.6 1.6 0.00 0.00 0.03 61 985.7
20260507165750 14 241 4.8 6.4 0.00 0.00 0.03 62 985.7
20260507165135 14 335 3.2 4.8 0.00 0.00 0.03 62 985.7
20260507163923 15 328 1.6 4.8 0.00 0.00 0.03 61 985.7
20260507162722 14 356 1.6 6.4 0.00 0.00 0.03 64 985.7
20260507162152 14 307 4.8 6.4 0.00 0.00 0.03 64 985.7
20260507161555 15 240 4.8 9.7 0.00 0.00 0.03 62 985.7
20260507160923 15 265 3.2 4.8 0.00 0.00 0.03 62 985.7
20260507160346 14 186 6.4 9.7 0.00 0.00 0.03 63 985.7
20260507155731 14 284 1.6 3.2 0.00 0.00 0.03 64 985.7
20260507155123 14 257 1.6 9.7 0.00 0.00 0.03 65 985.7
20260507154519 14 276 4.8 6.4 0.00 0.00 0.03 63 985.7
20260507153911 14 265 1.6 4.8 0.00 0.00 0.03 62 985.7
20260507153316 14 275 1.6 1.6 0.00 0.00 0.03 65 985.7
20260507152750 13 308 1.6 4.8 0.00 0.00 0.03 66 985.7
20260507151534 13 275 3.2 6.4 0.00 0.00 0.03 67 986.1
20260507150347 13 257 1.6 3.2 0.00 0.00 0.03 67 986.1
20260507145715 14 317 1.6 3.2 0.00 0.00 0.03 68 986.1
20260507145111 13 279 0.0 1.6 0.00 0.00 0.03 70 986.4
20260507144515 13 316 1.6 3.2 0.00 0.00 0.03 73 986.4
20260507143939 13 292 1.6 9.7 0.00 0.00 0.03 72 986.1
20260507143320 13 283 1.6 3.2 0.00 0.00 0.03 78 986.1
20260507142123 12 108 0.0 0.0 0.00 0.00 0.03 77 986.1
20260507141517 12 286 3.2 4.8 0.00 0.00 0.03 77 986.4
20260507140926 12 310 3.2 4.8 0.00 0.00 0.03 79 986.1
20260507140342 12 310 0.0 1.6 0.00 0.00 0.03 84 986.4
20260507135143 12 314 1.6 1.6 0.00 0.00 0.03 87 986.4
20260507134519 12 311 0.0 1.6 0.00 0.00 0.03 90 986.4
20260507133319 11 92 1.6 1.6 0.00 0.00 0.03 91 986.4
20260507132743 11 340 1.6 3.2 0.00 0.00 0.03 91 986.7
20260507132122 11 334 1.6 1.6 0.00 0.00 0.03 92 986.7